Starlink 6036

operational
NORAD ID: 56800 Int'l Des: 2023-078 Owner: SPXS Country: US Constellation: starlink
LEOCIRCULAR

关于 Starlink 6036

正在加载描述...

实时位置

正在加载3D地球...

即将过境

高度历史

Altitude vs Time

uPlot chart will show altitude changes over time

两行轨道根数

1 56800U 23078AK 25278.43711222 .00001736 00000-0 15324-3 0 9990
2 56800 70.0008 15.9555 0003117 272.4709 87.6093 14.98337640129425
Epoch: Oct 5, 2025 • Age: 14 hours

当前状态

高度 575.6 km
速度 7.57 km/s
星下点 -8.77°S, 16.74°W
发射日期 May 31, 2023
运行时间 2.3 years
类型 internet

技术详情

分类 Payload
质量 305.00 kg
干质量 290.00 kg
总质量 305.00 kg
长度 0.20 m
直径 2.80 m
跨度 9.00 m
形状 Box + pan
制造商 SPXS
平台类型 Starlink
阶段状态 In Orbit
所有者/国家 SPXS/US

大型星座

Loading constellations...